When you browse on this site, cookies collect data to enhance your experience and personalize the content and advertising you see.
Visit our Privacy Policy to learn more. By continuing to use the site, you agree to this use of cookies and data.
  • En España
  • Lista de países
  • Para 7 días
  • Temperatura del agua
  • Mapa Satelital
  • El tiempo en el mapa
  • Informadores
  • user-avatar
    Iniciar sesión

    Tiempo cada hora Ordino

    Hoy, 20 Enero, Domingo

    Tiempo Temperatura Precipitaciones Viento Presión Humedad
    00:00 -2°C° 0 mm 1 mps 624 mmHg 79%
    01:00 -2°C° 0.1 mm 1 mps 624 mmHg 82%
    02:00 -2°C° 0.1 mm 1 mps 624 mmHg 85%
    03:00 -1°C° 0.1 mm 1 mps 624 mmHg 87%
    04:00 -1°C° 0.1 mm 1 mps 624 mmHg 86%
    05:00 -1°C° 0.1 mm 1 mps 624 mmHg 84%
    06:00 -1°C° 0.1 mm 1 mps 624 mmHg 83%
    07:00 -1°C° 0 mm 1 mps 625 mmHg 78%
    08:00 -2°C° 0 mm 2 mps 625 mmHg 72%
    09:00 -2°C° 0 mm 2 mps 626 mmHg 67%
    10:00 -1°C° 0 mm 2 mps 626 mmHg 65%
    11:00 +1°C° 0 mm 2 mps 626 mmHg 62%
    12:00 +1°C° 0 mm 2 mps 627 mmHg 59%
    13:00 0°C° 0 mm 3 mps 627 mmHg 61%
    14:00 0°C° 0 mm 3 mps 626 mmHg 63%
    15:00 0°C° 0 mm 3 mps 626 mmHg 64%
    16:00 -1°C° 0 mm 2 mps 626 mmHg 72%
    17:00 -3°C° 0 mm 2 mps 626 mmHg 81%
    18:00 -4°C° 0 mm 2 mps 626 mmHg 89%
    19:00 -4°C° 0 mm 2 mps 627 mmHg 88%
    20:00 -4°C° 0 mm 2 mps 627 mmHg 88%
    21:00 -4°C° 0 mm 2 mps 627 mmHg 88%
    22:00 -4°C° 0.1 mm 2 mps 628 mmHg 88%
    23:00 -4°C° 0.1 mm 2 mps 628 mmHg 89%

    Mañana, 21 Enero, Lunes

    Tiempo Temperatura Precipitaciones Viento Presión Humedad
    00:00 -4°C° 0.1 mm 2 mps 628 mmHg 89%
    01:00 -4°C° 0.1 mm 2 mps 628 mmHg 89%
    02:00 -4°C° 0.1 mm 2 mps 628 mmHg 89%
    03:00 -4°C° 0.1 mm 2 mps 628 mmHg 88%
    04:00 -4°C° 0.2 mm 2 mps 628 mmHg 88%
    05:00 -4°C° 0.2 mm 2 mps 628 mmHg 88%
    06:00 -4°C° 0.2 mm 2 mps 628 mmHg 88%
    07:00 -4°C° 0.1 mm 2 mps 629 mmHg 85%
    08:00 -5°C° 0.1 mm 3 mps 629 mmHg 82%
    09:00 -4°C° 0.1 mm 3 mps 630 mmHg 79%
    10:00 -4°C° 0.1 mm 3 mps 630 mmHg 76%
    11:00 -2°C° 0.1 mm 3 mps 630 mmHg 72%
    12:00 -2°C° 0.1 mm 3 mps 630 mmHg 69%
    13:00 -2°C° 0.1 mm 3 mps 630 mmHg 69%
    14:00 -2°C° 0.1 mm 3 mps 630 mmHg 69%
    15:00 -2°C° 0.1 mm 3 mps 630 mmHg 69%
    16:00 -5°C° 0 mm 3 mps 630 mmHg 75%
    17:00 -5°C° 0 mm 2 mps 630 mmHg 81%
    18:00 -6°C° 0 mm 2 mps 629 mmHg 87%
    19:00 -6°C° 0 mm 2 mps 629 mmHg 88%
    20:00 -7°C° 0 mm 2 mps 630 mmHg 88%
    21:00 -7°C° 0 mm 2 mps 630 mmHg 89%
    22:00 -7°C° 0 mm 2 mps 629 mmHg 88%
    23:00 -8°C° 0 mm 2 mps 629 mmHg 87%

    Pasado mañana, 22 Enero, Martes

    Tiempo Temperatura Precipitaciones Viento Presión Humedad
    00:00 -8°C° 0 mm 2 mps 629 mmHg 86%
    01:00 -9°C° 0 mm 2 mps 628 mmHg 78%
    02:00 -9°C° 0 mm 2 mps 628 mmHg 71%
    03:00 -9°C° 0 mm 2 mps 627 mmHg 63%
    04:00 -9°C° 0 mm 2 mps 627 mmHg 59%
    05:00 -9°C° 0 mm 2 mps 627 mmHg 55%
    06:00 -9°C° 0 mm 2 mps 626 mmHg 51%
    07:00 -7°C° 0 mm 2 mps 626 mmHg 49%
    08:00 -4°C° 0 mm 1 mps 627 mmHg 47%
    09:00 -2°C° 0 mm 1 mps 627 mmHg 45%
    10:00 -1°C° 0 mm 1 mps 627 mmHg 45%
    11:00 +1°C° 0 mm 1 mps 626 mmHg 45%
    12:00 +2°C° 0 mm 1 mps 626 mmHg 45%
    13:00 +1°C° 0.6 mm 1 mps 625 mmHg 56%
    14:00 0°C° 0.6 mm 1 mps 624 mmHg 67%
    15:00 -1°C° 0.6 mm 1 mps 622 mmHg 78%
    16:00 -3°C° 0.7 mm 2 mps 622 mmHg 82%
    17:00 -4°C° 0.7 mm 2 mps 621 mmHg 86%
    18:00 -5°C° 0.7 mm 3 mps 621 mmHg 90%
    19:00 -5°C° 0.8 mm 3 mps 621 mmHg 90%
    20:00 -6°C° 0.8 mm 3 mps 621 mmHg 91%
    21:00 -6°C° 0.8 mm 3 mps 620 mmHg 91%
    22:00 -6°C° 1.1 mm 2 mps 620 mmHg 91%
    23:00 -6°C° 1.1 mm 2 mps 620 mmHg 92%

    23 Enero, Miércoles

    Tiempo Temperatura Precipitaciones Viento Presión Humedad
    00:00 -7°C° 1.1 mm 2 mps 619 mmHg 92%
    01:00 -8°C° 1.4 mm 3 mps 619 mmHg 92%
    02:00 -8°C° 1.4 mm 3 mps 618 mmHg 93%
    03:00 -10°C° 1.4 mm 4 mps 618 mmHg 93%
    04:00 -10°C° 1.1 mm 4 mps 617 mmHg 93%
    05:00 -10°C° 1.1 mm 4 mps 617 mmHg 94%
    06:00 -11°C° 1.1 mm 4 mps 616 mmHg 94%
    07:00 -11°C° 0.9 mm 4 mps 616 mmHg 93%
    08:00 -12°C° 0.9 mm 5 mps 617 mmHg 92%
    09:00 -13°C° 0.9 mm 5 mps 617 mmHg 91%
    10:00 -12°C° 0.4 mm 6 mps 617 mmHg 90%
    11:00 -13°C° 0.4 mm 7 mps 617 mmHg 88%
    12:00 -13°C° 0.4 mm 7 mps 617 mmHg 87%
    13:00 -13°C° 0.4 mm 7 mps 617 mmHg 88%
    14:00 -13°C° 0.4 mm 8 mps 616 mmHg 88%
    15:00 -15°C° 0.4 mm 8 mps 616 mmHg 89%
    16:00 -14°C° 0.4 mm 7 mps 617 mmHg 89%
    17:00 -14°C° 0.4 mm 7 mps 617 mmHg 90%
    18:00 -14°C° 0.4 mm 7 mps 618 mmHg 91%
    19:00 -14°C° 0.5 mm 7 mps 618 mmHg 91%
    20:00 -14°C° 0.5 mm 7 mps 618 mmHg 91%
    21:00 -14°C° 0.5 mm 7 mps 619 mmHg 92%
    22:00 -14°C° 0.4 mm 7 mps 618 mmHg 91%
    23:00 -14°C° 0.4 mm 7 mps 618 mmHg 90%

    24 Enero, Jueves

    Tiempo Temperatura Precipitaciones Viento Presión Humedad
    00:00 -15°C° 0.4 mm 7 mps 618 mmHg 90%
    01:00 -15°C° 0.1 mm 7 mps 618 mmHg 88%
    02:00 -16°C° 0.1 mm 8 mps 618 mmHg 87%
    03:00 -16°C° 0.1 mm 8 mps 618 mmHg 86%
    04:00 -15°C° 0 mm 7 mps 618 mmHg 85%
    05:00 -17°C° 0 mm 7 mps 618 mmHg 85%
    06:00 -16°C° 0 mm 6 mps 618 mmHg 84%
    07:00 -15°C° 0.1 mm 7 mps 619 mmHg 84%
    08:00 -14°C° 0.1 mm 7 mps 620 mmHg 83%
    09:00 -13°C° 0.1 mm 7 mps 621 mmHg 82%
    10:00 -13°C° 0 mm 7 mps 621 mmHg 82%
    11:00 -12°C° 0 mm 7 mps 621 mmHg 81%
    12:00 -10°C° 0 mm 6 mps 622 mmHg 80%
    13:00 -10°C° 0 mm 6 mps 622 mmHg 81%
    14:00 -10°C° 0 mm 6 mps 622 mmHg 81%
    15:00 -11°C° 0 mm 6 mps 622 mmHg 82%
    16:00 -12°C° 0 mm 5 mps 622 mmHg 84%
    17:00 -13°C° 0 mm 5 mps 622 mmHg 86%
    18:00 -14°C° 0 mm 5 mps 622 mmHg 88%
    19:00 -14°C° 0 mm 5 mps 623 mmHg 88%
    20:00 -14°C° 0 mm 5 mps 623 mmHg 88%
    21:00 -12°C° 0 mm 4 mps 624 mmHg 89%
    22:00 -14°C° 0 mm 4 mps 624 mmHg 89%
    23:00 -14°C° 0 mm 4 mps 624 mmHg 88%

    25 Enero, Viernes

    Tiempo Temperatura Precipitaciones Viento Presión Humedad
    00:00 -15°C° 0 mm 4 mps 624 mmHg 88%
    01:00 -14°C° 0 mm 3 mps 624 mmHg 87%
    02:00 -15°C° 0 mm 3 mps 624 mmHg 86%
    03:00 -15°C° 0 mm 3 mps 624 mmHg 85%
    04:00 -15°C° 0 mm 3 mps 624 mmHg 84%
    05:00 -15°C° 0 mm 3 mps 625 mmHg 83%
    06:00 -15°C° 0 mm 3 mps 625 mmHg 82%
    07:00 -14°C° 0 mm 3 mps 626 mmHg 79%
    08:00 -12°C° 0 mm 3 mps 627 mmHg 76%
    09:00 -10°C° 0 mm 3 mps 628 mmHg 73%
    10:00 -8°C° 0 mm 3 mps 629 mmHg 71%
    11:00 -6°C° 0 mm 3 mps 629 mmHg 69%
    12:00 -5°C° 0 mm 4 mps 630 mmHg 67%
    13:00 -5°C° 0 mm 3 mps 630 mmHg 68%
    14:00 -5°C° 0 mm 3 mps 630 mmHg 70%
    15:00 -5°C° 0 mm 3 mps 630 mmHg 71%
    16:00 -8°C° 0 mm 3 mps 629 mmHg 71%
    17:00 -10°C° 0 mm 3 mps 629 mmHg 70%
    18:00 -13°C° 0 mm 3 mps 628 mmHg 70%
    19:00 -13°C° 0 mm 3 mps 628 mmHg 70%
    20:00 -13°C° 0 mm 3 mps 629 mmHg 69%
    21:00 -13°C° 0 mm 3 mps 629 mmHg 69%
    22:00 -13°C° 0 mm 3 mps 629 mmHg 69%
    23:00 -13°C° 0 mm 3 mps 629 mmHg 68%
    Mostrar más